AAL144 KLAX-KLAS

Flight info

Callsign AAL144
Flight time N/A
Altitude 29000
Route ORCKA5 MISEN RNDRZ4
Aircraft MD11/H-SDE1E2E3FGHIJ2J3J4J5M1RWXY/LB1D1

Departure

Time 2026-04-25 03:28
Airport Los Angeles International Airport (KLAX)

Arrival

Time N/A
Airport Harry Reid International Airport (KLAS)
Time Latitude Longitude Altitude Speed Heading
2026-04-25 03:27 33.99715 -118.32537 11756 ft 291 kts 57°
2026-04-25 03:28 34.00847 -118.30335 12259 ft 319 kts 55°
2026-04-25 03:28 34.02045 -118.28078 13318 ft 329 kts 54°
2026-04-25 03:28 34.03324 -118.25724 13972 ft 339 kts 53°
2026-04-25 03:28 34.04630 -118.23358 14313 ft 337 kts 53°
2026-04-25 03:29 34.05942 -118.21007 14671 ft 341 kts 53°
2026-04-25 03:29 34.07342 -118.18526 14934 ft 374 kts 52°
2026-04-25 03:29 34.08819 -118.15913 15864 ft 382 kts 52°
2026-04-25 03:29 34.10332 -118.13235 16823 ft 390 kts 52°
2026-04-25 03:30 34.11876 -118.10499 17772 ft 398 kts 52°
2026-04-25 03:30 34.13444 -118.07714 18649 ft 405 kts 52°
2026-04-25 03:30 34.15043 -118.04875 19488 ft 412 kts 52°
2026-04-25 03:30 34.16669 -118.01985 20326 ft 419 kts 52°
2026-04-25 03:31 34.18321 -117.99051 21158 ft 425 kts 51°
2026-04-25 03:31 34.19992 -117.96082 21950 ft 432 kts 51°
2026-04-25 03:31 34.21115 -117.94086 22496 ft 435 kts 51°
2026-04-25 03:31 34.22830 -117.91038 23267 ft 442 kts 51°
2026-04-25 03:32 34.24567 -117.87945 23906 ft 448 kts 51°
2026-04-25 03:32 34.26329 -117.84806 24517 ft 453 kts 51°
2026-04-25 03:32 34.28101 -117.81644 25135 ft 457 kts 51°
2026-04-25 03:32 34.29892 -117.78445 25719 ft 462 kts 51°
2026-04-25 03:33 34.31704 -117.75208 26334 ft 465 kts 52°
2026-04-25 03:33 34.33525 -117.71947 26923 ft 469 kts 52°
2026-04-25 03:33 34.35368 -117.68692 27551 ft 472 kts 51°
2026-04-25 03:33 34.37274 -117.65430 27930 ft 473 kts 50°
2026-04-25 03:34 34.39193 -117.62205 28319 ft 472 kts 50°
2026-04-25 03:34 34.41118 -117.58992 28706 ft 472 kts 49°
2026-04-25 03:34 34.43052 -117.55769 28855 ft 472 kts 50°
2026-04-25 03:34 34.44981 -117.52549 28879 ft 473 kts 49°
2026-04-25 03:35 34.48836 -117.46089 28930 ft 473 kts 49°
2026-04-25 03:35 34.52687 -117.39617 28943 ft 473 kts 49°
2026-04-25 03:36 34.56531 -117.33141 28942 ft 473 kts 50°
2026-04-25 03:36 34.60373 -117.26655 28941 ft 473 kts 50°
2026-04-25 03:37 34.64190 -117.20202 28919 ft 473 kts 50°
2026-04-25 03:37 34.68023 -117.13710 28835 ft 473 kts 50°
2026-04-25 03:38 34.71859 -117.07201 28834 ft 474 kts 50°
2026-04-25 03:38 34.75694 -117.00682 28838 ft 474 kts 50°
2026-04-25 03:39 34.79525 -116.94158 28841 ft 474 kts 50°
2026-04-25 03:39 34.83354 -116.87621 28875 ft 475 kts 50°
2026-04-25 03:40 34.87180 -116.81036 28853 ft 477 kts 50°
2026-04-25 03:40 34.91018 -116.74433 28854 ft 478 kts 50°
2026-04-25 03:41 34.94825 -116.67775 28843 ft 485 kts 50°
2026-04-25 03:41 34.98677 -116.60956 28825 ft 489 kts 51°
2026-04-25 03:42 35.02503 -116.54116 28811 ft 483 kts 51°
2026-04-25 03:42 35.04386 -116.50731 28565 ft 483 kts 51°
2026-04-25 03:42 35.06270 -116.47353 28062 ft 481 kts 50°
2026-04-25 03:43 35.08156 -116.43978 27462 ft 481 kts 50°
2026-04-25 03:43 35.10116 -116.40689 26847 ft 477 kts 45°
2026-04-25 03:43 35.12258 -116.37617 26138 ft 473 kts 41°
2026-04-25 03:43 35.14481 -116.34694 25403 ft 466 kts 40°
2026-04-25 03:44 35.16712 -116.31856 24706 ft 461 kts 39°
2026-04-25 03:44 35.18928 -116.29053 24016 ft 455 kts 39°
2026-04-25 03:44 35.21102 -116.26284 23339 ft 449 kts 40°
2026-04-25 03:44 35.23229 -116.23507 22535 ft 445 kts 41°
2026-04-25 03:45 35.25297 -116.20727 21761 ft 438 kts 42°
2026-04-25 03:45 35.27318 -116.17968 20991 ft 432 kts 43°
2026-04-25 03:45 35.29302 -116.15243 20245 ft 425 kts 44°
2026-04-25 03:45 35.31236 -116.12579 19835 ft 411 kts 44°
2026-04-25 03:46 35.33100 -116.10007 19455 ft 397 kts 44°
2026-04-25 03:46 35.34914 -116.07507 18980 ft 388 kts 44°
2026-04-25 03:46 35.36692 -116.05062 18507 ft 381 kts 44°
2026-04-25 03:46 35.38439 -116.02663 18043 ft 374 kts 44°
2026-04-25 03:47 35.40159 -116.00301 17529 ft 368 kts 45°
2026-04-25 03:47 35.41848 -115.97979 17002 ft 362 kts 45°
2026-04-25 03:47 35.43509 -115.95695 16489 ft 357 kts 45°
2026-04-25 03:47 35.45149 -115.93438 15974 ft 352 kts 45°
2026-04-25 03:48 35.46769 -115.91207 15472 ft 347 kts 46°
2026-04-25 03:48 35.48367 -115.89004 14983 ft 344 kts 46°
2026-04-25 03:48 35.49949 -115.86821 14512 ft 341 kts 46°
2026-04-25 03:48 35.51516 -115.84658 14092 ft 337 kts 46°
2026-04-25 03:49 35.53063 -115.82520 13746 ft 334 kts 47°
2026-04-25 03:49 35.54601 -115.80394 13370 ft 332 kts 47°
2026-04-25 03:49 35.56124 -115.78286 12990 ft 329 kts 47°
2026-04-25 03:49 35.57635 -115.76193 12886 ft 327 kts 47°
2026-04-25 03:50 35.59129 -115.74131 12881 ft 328 kts 47°
2026-04-25 03:50 35.60669 -115.72025 12867 ft 328 kts 46°
2026-04-25 03:50 35.62197 -115.69946 12868 ft 327 kts 46°
2026-04-25 03:50 35.63722 -115.67876 12870 ft 327 kts 46°
2026-04-25 03:51 35.65251 -115.65802 12870 ft 327 kts 46°
2026-04-25 03:51 35.66780 -115.63731 12858 ft 326 kts 46°
2026-04-25 03:51 35.68285 -115.61688 12877 ft 327 kts 46°
2026-04-25 03:51 35.69808 -115.59617 12876 ft 326 kts 46°
2026-04-25 03:52 35.71349 -115.57521 12872 ft 326 kts 46°
2026-04-25 03:52 35.72980 -115.55653 12871 ft 324 kts 34°
2026-04-25 03:52 35.74859 -115.54128 12875 ft 324 kts 28°
2026-04-25 03:52 35.76802 -115.52739 12873 ft 323 kts 27°
2026-04-25 03:53 35.78761 -115.51383 12879 ft 323 kts 27°
2026-04-25 03:53 35.80727 -115.50027 12882 ft 323 kts 27°
2026-04-25 03:53 35.82679 -115.48674 12885 ft 323 kts 27°
2026-04-25 03:53 35.84640 -115.47306 12882 ft 324 kts 27°
2026-04-25 03:54 35.86598 -115.45934 12878 ft 324 kts 27°
2026-04-25 03:54 35.88555 -115.44559 12876 ft 324 kts 27°
2026-04-25 03:54 35.90517 -115.43179 12820 ft 324 kts 27°
2026-04-25 03:54 35.92473 -115.41806 12720 ft 322 kts 27°
2026-04-25 03:55 35.94429 -115.40436 12345 ft 324 kts 27°
2026-04-25 03:55 35.96371 -115.39073 11934 ft 320 kts 27°
2026-04-25 03:55 35.98303 -115.37718 11550 ft 317 kts 27°
2026-04-25 03:55 36.00125 -115.36200 11177 ft 317 kts 41°
2026-04-25 03:56 36.01353 -115.33973 10775 ft 315 kts 70°
2026-04-25 03:56 36.01711 -115.31331 10404 ft 311 kts 91°
2026-04-25 03:56 36.01606 -115.28676 10038 ft 309 kts 96°
2026-04-25 03:56 36.01401 -115.26037 9679 ft 307 kts 97°
2026-04-25 03:57 36.01197 -115.23416 9297 ft 305 kts 97°
2026-04-25 03:57 36.01014 -115.20809 8914 ft 305 kts 96°
2026-04-25 03:57 36.00851 -115.18228 8528 ft 299 kts 96°
2026-04-25 03:57 36.00704 -115.15679 8148 ft 295 kts 96°
2026-04-25 03:58 36.00567 -115.13188 7907 ft 285 kts 96°
2026-04-25 03:58 36.00441 -115.10810 7872 ft 269 kts 96°
2026-04-25 03:58 36.00321 -115.08556 7861 ft 258 kts 96°